Cedar Rapids, IA

10:43 PM CST on December 10, 2017 (GMT -0600)
The Eastern Iowa Airport

Weather History for KCID - July, 2013

Change the Weather History Date:

Friday, July 19, 2013

  Actual Average Record
Temperature  
Mean Temperature 81 °F 73 °F  
Max Temperature 92 °F 84 °F 103 °F (1930)
Min Temperature 69 °F 63 °F 50 °F (2009)
Degree Days  
Heating Degree Days 0 0  
Month to date heating degree days 0 0  
Since 1 June heating degree days 28 29  
Since 1 July heating degree days 0 0  
Cooling Degree Days 16 8  
Month to date cooling degree days 186 152  
Year to date cooling degree days 432 367  
Since 1 June cooling degree days 358 318  
Growing Degree Days 32 (Base 50)    
Moisture  
Dew Point 68 °F    
Average Humidity 65    
Maximum Humidity 79    
Minimum Humidity 50    
Precipitation  
Precipitation T in 0.14 in 2.18 in (2008)
Month to date precipitation 1.11 2.89  
Year to date precipitation 27.62 19.25  
Sea Level Pressure  
Sea Level Pressure 29.85 in    
Wind  
Wind Speed 10 mph (WSW)    
Max Wind Speed 18 mph    
Max Gust Speed 23 mph    
Visibility 10 miles    
Events      
T = Trace of Precipitation, MM = Missing Value Source: NWS Daily Summary

Daily Weather History Graph

Daily Weather History Graph

Search for Another Location

Airport or City:

Trip Planner

Search our weather history database for the weather conditions in past years. The results will help you decide how hot, cold, wet, or windy it might be!

Date:

Astronomy

Jul. 19, 2013 Rise Set
Actual Time 5:48 AM CDT 8:37 PM CDT
Civil Twilight 5:15 AM CDT 9:10 PM CDT
Nautical Twilight 4:34 AM CDT 9:51 PM CDT
Astronomical Twilight 3:46 AM CDT 10:38 PM CDT
Moon 5:40 PM CDT (7/19) 2:30 AM CDT (7/19)
Length of Visible Light 15h 54m
Length of Day
14h 48m
Waxing Gibbous, 87% of the Moon is Illuminated
Jul 19
Waxing Gibbous
Jul 22
Full
Jul 29
Last Quarter
Aug 6
New
Aug 14
First Quarter

Hourly Weather History & Observations

Time (CDT) Temp. Heat Index Dew Point Humidity Pressure Visibility Wind Dir Wind Speed Gust Speed Precip Events Conditions
12:52 AM 77.0 °F - 66.9 °F 71% 29.92 in 10.0 mi SSW 5.8 mph - N/A   Clear
1:52 AM 77.0 °F - 66.0 °F 69% 29.90 in 10.0 mi SSW 9.2 mph - N/A   Clear
2:52 AM 78.1 °F - 66.0 °F 66% 29.88 in 10.0 mi SSW 9.2 mph - N/A   Clear
3:52 AM 75.9 °F - 66.0 °F 71% 29.87 in 10.0 mi SSW 9.2 mph - N/A   Clear
4:52 AM 75.9 °F - 66.9 °F 74% 29.85 in 10.0 mi SSW 9.2 mph - N/A   Clear
5:52 AM 75.0 °F - 66.9 °F 76% 29.86 in 10.0 mi SSW 8.1 mph - N/A   Partly Cloudy
6:52 AM 75.9 °F - 66.9 °F 74% 29.87 in 10.0 mi SSW 8.1 mph - N/A   Scattered Clouds
7:52 AM 79.0 °F - 68.0 °F 69% 29.86 in 10.0 mi SW 11.5 mph - N/A   Partly Cloudy
8:52 AM 81.0 °F 83.8 °F 68.0 °F 65% 29.90 in 10.0 mi West 11.5 mph - N/A   Mostly Cloudy
9:52 AM 82.9 °F 87.0 °F 70.0 °F 65% 29.88 in 10.0 mi SW 11.5 mph - 0.00 in   Partly Cloudy
10:52 AM 84.9 °F 88.8 °F 69.1 °F 59% 29.86 in 10.0 mi WSW 12.7 mph - N/A   Partly Cloudy
11:52 AM 84.9 °F 89.4 °F 70.0 °F 61% 29.86 in 10.0 mi West 9.2 mph 19.6 mph N/A   Clear
12:52 PM 88.0 °F 92.9 °F 70.0 °F 55% 29.84 in 10.0 mi West 13.8 mph - N/A   Partly Cloudy
1:52 PM 89.1 °F 95.0 °F 71.1 °F 55% 29.82 in 10.0 mi West 11.5 mph 17.3 mph N/A   Clear
2:52 PM 91.9 °F 100.7 °F 73.0 °F 54% 29.81 in 10.0 mi West 15.0 mph 20.7 mph N/A   Clear
3:52 PM 90.0 °F 96.9 °F 72.0 °F 55% 29.81 in 10.0 mi West 11.5 mph - N/A   Scattered Clouds
4:52 PM 91.0 °F 97.6 °F 71.1 °F 52% 29.79 in 10.0 mi West 16.1 mph - N/A   Clear
5:52 PM 90.0 °F 96.4 °F 71.1 °F 54% 29.78 in 10.0 mi WNW 13.8 mph - N/A   Scattered Clouds
6:52 PM 89.1 °F 92.9 °F 68.0 °F 50% 29.78 in 10.0 mi WNW 6.9 mph - N/A   Clear
7:52 PM 84.9 °F 87.6 °F 66.9 °F 55% 29.80 in 10.0 mi NNW 9.2 mph - N/A   Clear
8:52 PM 80.1 °F 82.1 °F 66.0 °F 62% 29.81 in 10.0 mi NNW 6.9 mph - N/A   Clear
9:52 PM 77.0 °F - 64.9 °F 66% 29.84 in 10.0 mi NNW 6.9 mph - N/A   Clear
10:52 PM 73.0 °F - 64.9 °F 76% 29.85 in 10.0 mi Calm Calm - N/A   Clear
11:52 PM 72.0 °F - 64.0 °F 76% 29.86 in 10.0 mi NNW 6.9 mph - N/A   Clear